Location: Hohe Wand Kleine Kanzel
(47.8330°N, 16.0170°E)
Time: 09:02:15
(UTC+02:00)

Vanguard 3 - All Passes

Search period start: 24 July 2021 00:00
Search period end: 03 August 2021 00:00
Orbit: 508 x 3261 km, 33.4° (Epoch: 23 July)

Date Brightness Start Highest point End Pass type
(mag) Time Alt. Az. Time Alt. Az. Time Alt. Az.
24 Jul - 00:47:12 10° W 01:04:17 43° SSW 01:16:11 10° SE visible
24 Jul - 03:05:22 10° W 03:16:13 22° SW 03:24:09 10° S visible
24 Jul - 19:05:39 10° SSW 19:19:39 29° SE 19:34:29 10° E daylight
24 Jul - 21:15:56 10° SW 21:33:42 46° SSE 21:49:52 10° E visible
24 Jul - 23:30:08 10° WSW 23:48:32 49° S 00:02:27 10° ESE visible
25 Jul - 01:46:52 10° W 02:01:50 33° SSW 02:12:22 10° SSE visible
25 Jul - 04:09:58 10° WSW 04:12:29 11° SW 04:14:49 10° SW visible
25 Jul - 17:54:04 10° S 18:04:29 19° SE 18:15:59 10° E daylight
25 Jul - 20:01:17 10° SW 20:17:27 39° SSE 20:34:04 10° E daylight
25 Jul - 22:13:46 10° WSW 22:32:14 50° S 22:47:59 10° ESE visible
26 Jul - 00:29:14 10° W 00:46:39 42° SSW 00:59:23 10° SE visible
26 Jul - 02:47:36 10° W 02:58:42 21° SW 03:07:08 10° S visible
26 Jul - 18:47:49 10° SSW 19:01:40 31° SE 19:17:14 10° E daylight
26 Jul - 20:58:16 10° SW 21:15:46 48° SSE 21:32:45 10° ESE visible
26 Jul - 23:12:18 10° WSW 23:30:44 49° S 23:45:33 10° ESE visible
27 Jul - 01:28:56 10° W 01:44:12 32° SW 01:55:27 10° SSE visible
27 Jul - 17:35:58 10° S 17:46:34 21° SE 17:58:51 10° E daylight
27 Jul - 19:43:42 10° SW 19:59:29 41° SSE 20:16:44 10° E daylight
27 Jul - 21:56:07 10° WSW 22:14:21 51° S 22:30:54 10° ESE visible
28 Jul - 00:11:22 10° W 00:28:54 42° SSW 00:42:27 10° SE visible
28 Jul - 02:29:56 10° W 02:41:05 20° SW 02:49:53 10° S visible
28 Jul - 16:28:34 10° SE 16:32:11 11° SE 16:36:02 10° ESE daylight
28 Jul - 18:30:14 10° SSW 18:43:44 33° SE 18:59:45 10° E daylight
28 Jul - 20:40:46 10° SW 20:57:49 49° S 21:15:27 10° ESE visible
28 Jul - 22:54:36 10° WSW 23:12:53 48° SSW 23:28:29 10° SE visible
29 Jul - 01:11:07 10° W 01:26:28 31° SW 01:38:21 10° SSE visible
29 Jul - 17:18:12 10° S 17:28:42 23° SE 17:41:28 10° E daylight
29 Jul - 19:26:19 10° SW 19:41:32 43° SSE 19:59:14 10° E daylight
29 Jul - 21:38:37 10° WSW 21:56:25 51° S 22:13:40 10° ESE visible
29 Jul - 23:53:37 10° W 00:11:03 40° SSW 00:25:20 10° SE visible
30 Jul - 02:12:24 10° W 02:23:21 19° SW 02:32:22 10° S visible
30 Jul - 16:09:25 10° SSE 16:14:25 12° SE 16:20:00 10° ESE daylight
30 Jul - 18:12:53 10° SSW 18:25:49 34° SSE 18:42:07 10° E daylight
30 Jul - 20:23:27 10° WSW 20:39:52 50° S 20:58:02 10° ESE daylight
30 Jul - 22:37:02 10° W 22:54:58 47° SSW 23:11:16 10° SE visible
31 Jul - 00:53:26 10° W 01:08:37 29° SW 01:21:02 10° SSE visible
31 Jul - 17:00:45 10° S 17:10:54 24° SE 17:23:52 10° E daylight
31 Jul - 19:09:08 10° SW 19:23:39 44° SSE 19:41:35 10° E daylight
31 Jul - 21:21:17 10° WSW 21:38:29 51° S 21:56:16 10° ESE visible
31 Jul - 23:36:02 10° W 23:53:08 39° SSW 00:08:02 10° SSE visible
01 Aug - 01:55:07 10° W 02:05:32 18° SW 02:14:31 10° SSW visible
01 Aug - 15:51:12 10° SSE 15:56:44 13° SE 16:03:10 10° ESE daylight
01 Aug - 17:55:45 10° SSW 18:08:01 36° SSE 18:24:20 10° E daylight
01 Aug - 20:06:18 10° WSW 20:21:58 50° S 20:40:26 10° ESE daylight
01 Aug - 22:19:38 10° W 22:37:00 46° SSW 22:53:52 10° SE visible
02 Aug - 00:35:55 10° W 00:50:43 28° SW 01:03:29 10° SSE visible
02 Aug - 16:43:32 10° S 16:53:12 25° SE 17:06:08 10° E daylight
02 Aug - 18:52:07 10° SW 19:05:49 45° SSE 19:23:47 10° E daylight
02 Aug - 21:04:06 10° WSW 21:20:32 50° S 21:38:43 10° ESE visible
02 Aug - 23:18:36 10° W 23:35:10 37° SSW 23:50:31 10° SSE visible
